Location: Austin
(30.3000°N, 97.7500°W)
Time: 03:33:50
(UTC-05:00)

Cosmos 2297 Rocket - Pass Details

Date: 20 April 2024
Orbit: 838 x 844 km, 71.0° (Epoch: 20 July)

Event Time Altitude Azimuth Distance (km) Brightness Sun altitude
Rises 23:37:11 0° 322° (NW) 3,391 6.2 -39.8°
Reaches altitude 10° 23:40:09 10° 307° (NW) 2,453 5.2 -40.1°
Enters shadow 23:42:12 18° 288° (WNW) 1,971 4.5 -40.4°
